Location: Burland Observatory
(39.4088°N, 105.4217°W)
Time: 07:11:53
(UTC-07:00)

SR - Pass Details

Date: 17 December 2019
Orbit: 574 x 882 km, 66.7° (Epoch: 26 January)

Event Time Altitude Azimuth Distance (km) Brightness Sun altitude
Rises 15:53:07 0° 337° (NNW) 3,474 ? 6.6°
Reaches altitude 10° 15:55:52 10° 345° (NNW) 2,514 ? 6.2°
Maximum altitude 16:01:15 37° 52° (NE) 1,277 ? 5.4°
Drops below altitude 10° 16:06:20 10° 120° (ESE) 2,366 ? 4.6°
Sets 16:08:50 0° 128° (SE) 3,245 ? 4.2°
